Wind_Speed
17 18 18 16 16 16 16 17 17 13 14 17 16 16 14 15 16 15 15 15 16 15 14 14 14 14 13 12 13 13 13 14 14 14 14 14 14 15 16 16 15 16 17 17
17 17 16 15 16 18 18 17 15 15 17 18 17 16 14 15 17 16 16 16 16 16 16 16 16 14 15 15 14 14 15 15 15 15 15 15 15 16 16 17 16 17 18 17
16 15 15 17 19 20 19 18 17 17 17 18 17 17 17 16 18 18 17 17 16 16 18 17 16 16 16 14 14 15 16 16 16 16 16 16 16 17 17 17 17 17 18 18
17 16 18 19 20 19 18 17 19 19 19 19 17 18 18 18 18 19 18 17 17 17 19 19 18 18 17 17 16 15 16 17 17 17 16 17 17 17 18 18 18 19 18 17
17 18 20 20 19 18 17 18 20 21 20 20 18 18 18 17 19 18 18 17 17 17 18 19 19 19 19 18 18 16 16 17 17 17 17 17 17 18 19 18 19 19 18 18
18 19 20 20 19 19 19 19 20 20 20 19 17 18 20 19 20 19 19 19 19 18 19 20 20 21 20 20 20 19 18 18 18 18 17 17 18 19 19 19 19 20 19 18
18 19 20 20 20 20 20 20 20 20 19 18 16 19 21 21 20 20 20 20 21 21 21 21 21 21 22 22 21 20 19 18 19 19 18 18 19 19 20 20 20 21 19 19
17 19 19 20 20 20 20 19 19 19 18 18 18 21 21 21 23 22 21 22 22 21 21 21 21 22 22 21 21 20 20 19 19 19 18 19 19 20 20 21 21 21 20 20
16 18 19 20 20 20 20 20 19 20 19 19 18 18 22 23 25 25 22 22 21 21 21 21 21 21 21 21 21 21 21 20 20 20 20 20 20 21 21 21 21 21 21 21
17 18 20 21 21 21 21 21 21 22 22 22 21 21 23 25 25 24 22 22 22 21 22 22 22 22 21 21 22 22 22 22 21 21 21 22 22 22 22 22 22 22 21 21
20 20 20 21 23 22 21 22 23 24 24 23 23 22 23 25 26 26 25 25 24 23 23 23 22 22 23 23 23 23 23 23 23 22 23 23 24 24 23 22 22 22 22 22
22 22 21 22 23 22 23 23 24 25 25 24 23 25 24 23 24 25 25 25 25 24 24 24 24 24 25 24 24 24 24 24 24 24 24 24 24 24 23 23 23 23 23 23
24 25 23 23 23 24 24 24 25 25 26 25 24 25 24 24 24 25 26 26 25 25 25 25 25 26 25 25 24 24 24 25 25 25 24 25 25 25 25 25 25 25 25 24
26 27 26 24 22 23 24 24 25 24 25 25 24 25 25 26 27 26 25 26 27 27 28 28 28 27 26 25 25 25 25 25 25 25 25 25 25 25 25 25 26 26 26 25
27 28 27 25 23 23 24 26 26 26 26 26 23 25 26 27 28 26 26 27 27 29 29 29 28 27 26 26 26 26 26 25 25 25 25 25 24 25 25 25 25 25 25 25
27 27 26 25 24 23 24 25 25 26 27 26 26 27 27 28 28 27 26 27 27 28 30 30 29 27 26 26 27 27 27 26 26 25 24 24 24 25 25 25 25 25 25 24
27 27 26 26 25 24 25 24 26 26 25 25 26 27 27 28 29 28 28 28 28 30 30 29 29 27 27 27 27 27 26 26 26 25 24 25 25 25 25 25 25 25 25 24
28 27 27 26 26 27 27 25 25 26 26 27 28 28 29 30 29 30 30 29 30 31 30 30 30 29 28 27 27 27 26 26 25 25 25 25 25 25 25 24 24 24 25 24
28 28 28 27 27 27 27 26 25 25 26 27 29 29 31 31 31 31 31 30 30 30 29 29 29 29 29 28 28 27 26 26 26 26 26 26 26 26 25 25 24 24 25 25
26 26 27 27 28 28 27 25 25 26 28 29 29 30 31 31 31 31 31 31 30 29 29 28 28 28 27 27 27 27 26 26 26 26 27 27 28 27 27 26 26 25 25 25
25 26 26 26 27 27 26 25 27 28 29 28 29 30 32 32 31 31 31 31 30 30 29 28 27 27 27 27 28 27 27 27 27 27 27 28 28 28 28 28 27 27 26 25
24 24 24 24 26 27 27 27 29 29 27 27 27 28 29 30 30 31 30 30 30 30 29 28 28 28 27 27 28 28 28 28 28 28 29 28 28 28 28 28 27 26 25 25
25 25 27 26 26 26 25 27 29 29 29 28 27 26 26 28 29 29 29 28 28 28 28 28 28 29 27 27 27 27 27 28 29 29 29 29 28 28 27 26 26 25 24 24
25 24 25 27 27 26 25 25 27 28 27 27 27 26 27 27 27 26 26 27 28 27 27 27 27 28 28 28 28 27 27 28 28 29 29 28 27 26 26 26 25 25 24 24
25 26 27 28 27 27 27 26 26 27 26 26 25 25 26 26 26 26 26 27 28 28 27 27 28 28 29 29 28 28 28 28 28 28 27 26 26 26 26 26 25 25 24 24
28 28 28 28 27 28 28 27 25 25 24 24 25 25 24 24 25 26 27 27 27 27 28 28 28 27 28 28 27 27 27 27 27 27 26 26 25 25 25 25 25 25 24 23
Wind_Direction
222 222 222 225 229 227 227 229 233 230 239 250 253 253 246 250 258 260 264 269 274 281 279 284 288 293 295 297 298 300 302 304 306 308 312 315 319 321 323 323 318 318 317 315
221 220 219 219 228 229 228 236 235 228 241 247 248 249 249 245 253 258 262 263 267 274 276 281 288 293 296 294 295 297 298 302 305 306 308 312 314 316 318 320 319 317 314 310
222 221 223 222 225 230 226 230 233 233 239 248 250 250 250 244 249 253 257 262 268 272 275 277 287 291 292 293 295 296 295 298 301 303 305 309 310 312 315 317 317 315 312 310
224 220 225 229 230 232 231 230 234 236 238 242 250 256 252 248 251 254 256 261 269 274 278 282 287 288 289 291 293 294 294 297 298 299 300 303 306 308 310 312 315 315 313 314
224 223 226 230 232 233 229 232 236 235 240 243 243 251 250 250 250 257 263 263 269 273 276 280 283 286 288 288 290 291 293 295 296 295 296 300 305 307 308 312 316 316 312 310
227 228 231 233 233 235 233 233 240 243 244 247 246 247 248 245 249 252 259 263 269 272 274 276 279 284 286 284 285 287 287 289 290 291 293 296 301 304 307 310 312 313 309 308
231 231 233 234 235 237 236 235 239 243 247 251 255 257 252 254 255 253 260 265 270 270 274 277 279 280 281 281 282 286 287 287 287 288 290 293 298 302 304 306 308 310 308 306
235 235 235 236 238 239 239 239 240 244 247 248 246 252 254 249 258 262 262 265 268 271 276 278 279 279 279 279 281 283 285 285 284 285 286 289 293 296 300 303 306 307 306 304
234 238 235 237 240 240 241 238 240 246 247 251 250 247 246 252 260 264 263 264 270 275 277 278 278 278 276 278 279 280 281 281 282 281 283 287 291 293 296 300 302 305 304 303
227 237 237 239 243 242 239 239 236 240 245 249 248 254 257 257 259 265 265 267 268 273 275 276 277 278 277 278 278 278 278 279 280 279 280 283 287 289 292 296 300 303 304 303
230 236 236 239 243 242 240 238 239 242 243 247 252 251 257 259 262 265 269 269 271 272 272 273 274 275 277 277 277 278 278 278 279 278 279 281 284 287 290 293 297 300 304 303
234 237 238 238 243 242 241 242 241 243 248 249 251 257 259 261 261 264 268 269 270 270 270 271 273 273 275 277 278 278 278 278 277 278 279 280 282 285 288 290 294 297 300 302
236 238 239 239 238 239 240 241 241 244 248 250 251 259 260 261 261 262 265 267 266 270 273 271 272 273 274 275 276 277 278 278 279 278 279 280 282 283 285 289 291 295 298 299
238 239 240 242 240 242 241 240 240 243 246 249 249 254 260 262 264 265 265 265 267 271 273 272 272 273 274 274 275 277 278 279 280 279 279 281 281 282 285 288 289 291 295 296
239 240 241 244 244 248 247 243 243 243 244 247 249 252 255 261 264 266 267 267 270 271 273 272 272 274 275 274 275 276 277 278 280 279 279 279 280 281 283 285 287 289 291 292
240 240 242 246 246 248 249 249 249 248 247 246 246 249 253 261 264 265 264 265 267 269 273 273 272 274 274 276 276 275 276 277 280 279 278 280 280 280 282 283 285 287 288 289
245 243 242 245 246 247 245 245 245 248 250 250 250 253 256 257 262 266 266 267 268 270 272 271 271 273 274 275 276 276 275 276 278 279 279 281 281 281 281 282 284 286 286 286
244 244 244 246 247 246 249 250 249 250 250 251 253 253 254 257 259 261 263 266 268 269 270 270 271 270 273 275 276 276 275 274 275 277 277 280 282 282 282 282 282 283 284 285
248 248 246 245 247 250 251 250 249 251 252 252 253 254 255 259 260 262 265 268 270 271 271 271 272 272 272 273 274 274 274 275 276 277 277 278 281 281 281 281 282 282 285 285
251 251 248 247 246 246 250 252 252 254 256 256 255 255 257 259 262 264 265 267 271 271 271 272 272 272 272 274 275 275 275 276 275 276 277 278 280 280 280 280 281 282 284 285
249 250 250 249 247 246 248 249 253 255 258 259 258 257 258 260 263 265 265 267 269 269 271 270 270 269 270 272 272 273 274 274 275 275 278 279 280 278 278 278 279 281 281 281
245 249 250 250 249 250 253 252 253 255 256 258 259 259 260 264 265 265 265 266 267 267 268 270 269 269 270 271 271 272 273 274 275 275 276 277 279 278 277 277 278 279 279 280
241 244 246 250 251 253 252 250 253 254 256 258 260 262 262 265 267 266 266 265 265 266 269 269 270 269 269 271 273 273 273 274 275 275 276 276 278 277 277 276 277 277 278 279
243 244 247 250 251 252 255 255 255 255 258 261 263 264 265 267 267 266 265 263 263 266 268 269 270 269 269 271 272 273 273 274 274 275 275 275 276 276 276 275 275 275 276 277
245 248 250 252 253 253 256 258 257 259 260 261 263 266 267 268 267 266 266 266 265 266 268 270 271 270 269 270 271 270 271 272 273 273 274 274 274 275 275 274 274 274 276 277
248 248 250 254 256 255 256 257 259 262 264 263 264 266 268 266 265 266 268 268 268 268 269 270 270 269 268 268 269 269 270 271 272 272 273 274 273 273 273 273 273 274 275 275
Height
5852 5855 5857 5860 5863 5866 5868 5870 5872 5873 5876 5876 5877 5878 5879 5880 5880 5880 5880 5881 5880 5879 5879 5878 5877 5877 5877 5876 5876 5875 5874 5873 5872 5871 5869 5868 5867 5866 5864 5862 5860 5859 5857 5856
5849 5851 5855 5858 5861 5862 5865 5866 5868 5870 5872 5873 5874 5875 5876 5877 5877 5878 5878 5878 5878 5878 5877 5876 5876 5875 5874 5874 5873 5873 5872 5871 5870 5868 5867 5866 5865 5864 5862 5860 5858 5856 5855 5853
5846 5851 5852 5855 5857 5858 5860 5863 5865 5867 5869 5869 5870 5872 5873 5874 5874 5874 5875 5875 5875 5875 5874 5872 5873 5873 5872 5871 5871 5870 5870 5868 5867 5866 5865 5864 5863 5861 5860 5858 5856 5854 5852 5850
5843 5847 5849 5851 5853 5854 5857 5860 5861 5863 5865 5866 5868 5868 5870 5870 5870 5870 5871 5872 5872 5872 5870 5869 5869 5869 5869 5869 5868 5868 5867 5865 5864 5863 5862 5861 5860 5859 5857 5855 5853 5851 5849 5847
5840 5843 5845 5847 5850 5851 5854 5856 5857 5858 5860 5862 5863 5865 5866 5866 5865 5866 5867 5867 5868 5869 5868 5867 5866 5866 5866 5865 5865 5864 5863 5862 5861 5860 5859 5858 5857 5856 5854 5852 5851 5849 5847 5845
5837 5839 5841 5844 5846 5848 5850 5852 5853 5854 5856 5858 5860 5861 5861 5861 5861 5861 5862 5862 5864 5865 5864 5863 5863 5862 5862 5862 5861 5860 5860 5859 5858 5857 5856 5855 5854 5853 5851 5850 5848 5846 5844 5842
5833 5835 5837 5840 5842 5844 5846 5848 5850 5851 5852 5854 5857 5856 5856 5856 5856 5856 5858 5858 5859 5860 5860 5859 5859 5859 5858 5857 5856 5856 5856 5855 5855 5854 5853 5852 5851 5849 5848 5846 5844 5843 5841 5839
5829 5832 5834 5835 5837 5839 5841 5844 5846 5847 5849 5851 5852 5852 5853 5853 5853 5853 5854 5854 5855 5855 5856 5855 5855 5855 5854 5852 5852 5852 5852 5852 5851 5850 5849 5848 5847 5846 5845 5843 5841 5839 5837 5835
5827 5829 5830 5832 5834 5836 5837 5838 5842 5844 5845 5846 5847 5848 5847 5847 5848 5848 5849 5849 5850 5851 5851 5850 5850 5850 5849 5848 5848 5848 5848 5847 5847 5846 5845 5844 5843 5842 5841 5839 5837 5835 5833 5831
5822 5825 5826 5828 5829 5831 5834 5836 5838 5839 5840 5841 5843 5844 5844 5842 5842 5843 5843 5843 5844 5845 5846 5845 5845 5845 5845 5844 5844 5843 5843 5842 5842 5842 5841 5840 5839 5838 5836 5835 5833 5831 5829 5827
5816 5819 5822 5822 5823 5826 5828 5830 5832 5834 5835 5836 5838 5841 5838 5838 5838 5837 5837 5838 5839 5840 5840 5839 5839 5840 5839 5839 5839 5838 5838 5837 5837 5836 5835 5835 5834 5833 5832 5830 5829 5827 5825 5823
5811 5813 5815 5817 5819 5821 5823 5825 5827 5829 5829 5830 5832 5836 5832 5831 5831 5831 5832 5832 5833 5833 5833 5833 5833 5833 5833 5833 5833 5832 5832 5832 5831 5830 5830 5829 5829 5828 5827 5826 5824 5822 5821 5818
5805 5807 5809 5811 5815 5815 5816 5819 5821 5823 5824 5824 5827 5829 5826 5826 5825 5825 5826 5826 5826 5827 5827 5826 5826 5827 5827 5827 5827 5827 5826 5826 5825 5824 5824 5824 5823 5822 5821 5820 5819 5817 5815 5813
5799 5800 5803 5805 5807 5809 5810 5813 5815 5816 5817 5819 5820 5821 5821 5819 5818 5819 5819 5819 5819 5820 5821 5820 5821 5821 5820 5820 5821 5820 5820 5819 5819 5818 5818 5817 5817 5817 5816 5815 5813 5812 5810 5808
5792 5794 5796 5799 5801 5802 5804 5806 5808 5809 5811 5813 5814 5814 5814 5813 5813 5812 5813 5813 5814 5814 5814 5814 5814 5815 5814 5814 5814 5814 5813 5813 5813 5812 5812 5811 5811 5810 5810 5809 5807 5806 5805 5803
5785 5788 5790 5792 5794 5796 5797 5799 5801 5802 5804 5805 5807 5807 5806 5806 5806 5806 5807 5807 5807 5807 5808 5807 5808 5808 5808 5807 5807 5807 5807 5807 5806 5806 5805 5805 5804 5804 5803 5802 5801 5800 5799 5798
5778 5781 5783 5785 5787 5788 5790 5793 5794 5796 5797 5799 5799 5800 5799 5799 5800 5800 5801 5800 5800 5800 5801 5801 5801 5801 5801 5801 5800 5800 5800 5800 5799 5799 5799 5798 5797 5797 5797 5796 5795 5794 5793 5792
5771 5773 5775 5778 5781 5781 5785 5785 5787 5789 5789 5791 5792 5792 5792 5792 5792 5793 5793 5793 5793 5793 5793 5793 5793 5794 5794 5794 5793 5793 5793 5793 5793 5793 5792 5792 5791 5791 5790 5790 5789 5788 5787 5785
5764 5766 5768 5771 5772 5774 5777 5778 5780 5781 5782 5782 5783 5784 5784 5784 5785 5785 5786 5785 5785 5786 5786 5786 5786 5786 5787 5787 5786 5786 5786 5786 5786 5786 5786 5785 5784 5784 5784 5783 5782 5781 5780 5779
5757 5759 5761 5763 5765 5767 5770 5771 5772 5774 5773 5774 5775 5775 5775 5776 5777 5777 5778 5777 5778 5778 5778 5778 5779 5779 5779 5779 5779 5779 5779 5779 5779 5779 5779 5778 5778 5777 5777 5776 5776 5775 5773 5772
5750 5752 5753 5755 5756 5759 5761 5763 5765 5766 5766 5766 5766 5767 5767 5768 5769 5769 5769 5769 5770 5770 5770 5771 5771 5771 5772 5772 5772 5772 5772 5772 5771 5771 5771 5771 5770 5769 5769 5769 5768 5767 5766 5765
5744 5745 5747 5748 5749 5754 5754 5755 5756 5756 5756 5757 5757 5758 5758 5759 5759 5760 5760 5760 5761 5762 5762 5763 5763 5763 5764 5764 5764 5764 5764 5764 5764 5764 5763 5763 5762 5762 5761 5761 5760 5760 5759 5758
5737 5739 5740 5742 5744 5745 5745 5746 5746 5747 5748 5749 5750 5750 5751 5751 5750 5751 5751 5751 5752 5753 5754 5755 5755 5755 5756 5756 5756 5756 5756 5756 5756 5756 5755 5755 5755 5754 5754 5753 5753 5752 5751 5751
5729 5731 5733 5734 5735 5736 5737 5738 5738 5740 5741 5741 5742 5743 5743 5743 5743 5743 5742 5743 5744 5745 5746 5747 5747 5747 5748 5748 5748 5748 5748 5748 5748 5748 5747 5747 5747 5747 5746 5746 5745 5745 5744 5744
5722 5724 5725 5726 5728 5729 5730 5730 5731 5731 5733 5734 5735 5735 5736 5736 5736 5736 5736 5736 5737 5738 5738 5739 5739 5739 5740 5740 5740 5740 5740 5739 5739 5739 5739 5739 5738 5738 5739 5738 5738 5738 5737 5736
5716 5717 5718 5719 5721 5721 5722 5723 5724 5725 5725 5726 5727 5728 5729 5728 5728 5728 5729 5729 5729 5730 5730 5730 5731 5731 5731 5731 5732 5732 5732 5732 5732 5731 5732 5731 5731 5731 5731 5731 5731 5730 5730 5730